• In Hungary
  • List of Countries
  • For 7 days
  • Water Temperature
  • Satellite Maps
  • Weather Map
  • News
  • Weather Widgets
  • user-avatar
    Login

    Hourly Weather Coesfeld

    Today, 24 January, Wednesday

    Time Temperature Precipitation Wind Pressure Humidity
    00:00 +8°C° 0 mm 7 mps 755 mmHg 88%
    01:00 +9°C° 0.1 mm 7 mps 755 mmHg 88%
    02:00 +9°C° 0.1 mm 7 mps 755 mmHg 89%
    03:00 +9°C° 0.1 mm 6 mps 755 mmHg 89%
    04:00 +9°C° 0 mm 6 mps 754 mmHg 89%
    05:00 +9°C° 0 mm 6 mps 754 mmHg 89%
    06:00 +9°C° 0 mm 6 mps 754 mmHg 89%
    07:00 +10°C° 0 mm 7 mps 753 mmHg 88%
    08:00 +10°C° 0 mm 7 mps 753 mmHg 86%
    09:00 +10°C° 0 mm 7 mps 753 mmHg 85%
    10:00 +11°C° 0 mm 8 mps 752 mmHg 81%
    11:00 +12°C° 0 mm 8 mps 752 mmHg 77%
    12:00 +12°C° 0 mm 9 mps 751 mmHg 73%
    13:00 +12°C° 0 mm 9 mps 751 mmHg 72%
    14:00 +12°C° 0 mm 9 mps 750 mmHg 72%
    15:00 +12°C° 0 mm 9 mps 750 mmHg 71%
    16:00 +12°C° 0 mm 9 mps 750 mmHg 71%
    17:00 +11°C° 0 mm 9 mps 749 mmHg 72%
    18:00 +11°C° 0 mm 9 mps 749 mmHg 73%
    19:00 +10°C° 0.2 mm 9 mps 749 mmHg 74%
    20:00 +10°C° 0.2 mm 9 mps 749 mmHg 75%
    21:00 +10°C° 0.2 mm 9 mps 749 mmHg 77%
    22:00 +10°C° 0.6 mm 7 mps 750 mmHg 80%
    23:00 +9°C° 0.6 mm 6 mps 750 mmHg 83%

    Tomorrow, 25 January, Thursday

    Time Temperature Precipitation Wind Pressure Humidity
    00:00 +9°C° 0.6 mm 5 mps 750 mmHg 85%
    01:00 +9°C° 0.3 mm 5 mps 750 mmHg 85%
    02:00 +8°C° 0.3 mm 5 mps 750 mmHg 86%
    03:00 +8°C° 0.3 mm 5 mps 750 mmHg 86%
    04:00 +7°C° 0.1 mm 4 mps 750 mmHg 86%
    05:00 +7°C° 0.1 mm 4 mps 750 mmHg 85%
    06:00 +7°C° 0.1 mm 4 mps 750 mmHg 85%
    07:00 +7°C° 0 mm 4 mps 750 mmHg 85%
    08:00 +7°C° 0 mm 4 mps 751 mmHg 84%
    09:00 +7°C° 0 mm 4 mps 751 mmHg 83%
    10:00 +7°C° 0.1 mm 4 mps 751 mmHg 80%
    11:00 +8°C° 0.1 mm 4 mps 750 mmHg 76%
    12:00 +8°C° 0.1 mm 4 mps 750 mmHg 73%
    13:00 +8°C° 0.3 mm 4 mps 750 mmHg 75%
    14:00 +8°C° 0.3 mm 3 mps 750 mmHg 77%
    15:00 +8°C° 0.3 mm 3 mps 750 mmHg 79%
    16:00 +7°C° 0.2 mm 3 mps 750 mmHg 82%
    17:00 +7°C° 0.2 mm 3 mps 750 mmHg 84%
    18:00 +7°C° 0.2 mm 3 mps 750 mmHg 87%
    19:00 +6°C° 0.1 mm 2 mps 751 mmHg 88%
    20:00 +6°C° 0.1 mm 2 mps 751 mmHg 88%
    21:00 +6°C° 0.1 mm 2 mps 751 mmHg 89%
    22:00 +6°C° 0 mm 2 mps 751 mmHg 90%
    23:00 +5°C° 0 mm 2 mps 751 mmHg 91%

    Day after tomorrow, 26 January, Friday

    Time Temperature Precipitation Wind Pressure Humidity
    00:00 +5°C° 0 mm 2 mps 751 mmHg 91%
    01:00 +5°C° 0 mm 2 mps 752 mmHg 92%
    02:00 +5°C° 0 mm 2 mps 752 mmHg 92%
    03:00 +4°C° 0 mm 2 mps 752 mmHg 93%
    04:00 +4°C° 0 mm 2 mps 752 mmHg 93%
    05:00 +4°C° 0 mm 2 mps 753 mmHg 93%
    06:00 +4°C° 0 mm 2 mps 753 mmHg 93%
    07:00 +4°C° 0 mm 2 mps 753 mmHg 92%
    08:00 +4°C° 0 mm 2 mps 754 mmHg 90%
    09:00 +4°C° 0 mm 2 mps 754 mmHg 89%
    10:00 +4°C° 0 mm 3 mps 754 mmHg 86%
    11:00 +5°C° 0 mm 3 mps 755 mmHg 82%
    12:00 +5°C° 0 mm 3 mps 755 mmHg 79%
    13:00 +6°C° 0 mm 2 mps 755 mmHg 79%
    14:00 +6°C° 0 mm 2 mps 756 mmHg 79%
    15:00 +6°C° 0 mm 2 mps 756 mmHg 79%
    16:00 +6°C° 0 mm 2 mps 756 mmHg 82%
    17:00 +5°C° 0 mm 2 mps 757 mmHg 84%
    18:00 +4°C° 0 mm 2 mps 757 mmHg 87%
    19:00 +4°C° 0 mm 2 mps 758 mmHg 88%
    20:00 +4°C° 0 mm 2 mps 758 mmHg 89%
    21:00 +3°C° 0 mm 2 mps 759 mmHg 90%
    22:00 +4°C° 0 mm 1 mps 759 mmHg 91%
    23:00 +4°C° 0 mm 1 mps 760 mmHg 92%

    27 January, Saturday

    Time Temperature Precipitation Wind Pressure Humidity
    00:00 +4°C° 0 mm 1 mps 760 mmHg 93%
    01:00 +3°C° 0 mm 1 mps 760 mmHg 93%
    02:00 +3°C° 0 mm 1 mps 761 mmHg 94%
    03:00 +3°C° 0 mm 1 mps 761 mmHg 94%
    04:00 +3°C° 0 mm 1 mps 761 mmHg 95%
    05:00 +3°C° 0 mm 1 mps 762 mmHg 95%
    06:00 +1°C° 0 mm 2 mps 762 mmHg 95%
    07:00 +2°C° 0 mm 2 mps 763 mmHg 94%
    08:00 +2°C° 0 mm 2 mps 763 mmHg 94%
    09:00 +3°C° 0 mm 2 mps 764 mmHg 93%
    10:00 +3°C° 0 mm 3 mps 764 mmHg 89%
    11:00 +4°C° 0 mm 3 mps 765 mmHg 85%
    12:00 +5°C° 0 mm 3 mps 765 mmHg 80%
    13:00 +5°C° 0 mm 3 mps 765 mmHg 80%
    14:00 +5°C° 0 mm 3 mps 765 mmHg 80%
    15:00 +5°C° 0 mm 3 mps 765 mmHg 80%
    16:00 +4°C° 0 mm 3 mps 765 mmHg 83%
    17:00 +3°C° 0 mm 3 mps 765 mmHg 86%
    18:00 +3°C° 0 mm 3 mps 765 mmHg 89%
    19:00 +3°C° 0 mm 4 mps 765 mmHg 88%
    20:00 +3°C° 0 mm 4 mps 766 mmHg 87%
    21:00 +2°C° 0 mm 5 mps 766 mmHg 87%
    22:00 +2°C° 0 mm 5 mps 766 mmHg 84%
    23:00 +2°C° 0 mm 5 mps 765 mmHg 82%

    28 January, Sunday

    Time Temperature Precipitation Wind Pressure Humidity
    00:00 +2°C° 0 mm 6 mps 765 mmHg 80%
    01:00 +2°C° 0.1 mm 6 mps 765 mmHg 78%
    02:00 +2°C° 0.1 mm 6 mps 765 mmHg 77%
    03:00 +3°C° 0.1 mm 6 mps 765 mmHg 76%
    04:00 +3°C° 0.2 mm 6 mps 765 mmHg 79%
    05:00 +3°C° 0.2 mm 6 mps 765 mmHg 82%
    06:00 +3°C° 0.2 mm 6 mps 765 mmHg 85%
    07:00 +3°C° 0.1 mm 5 mps 765 mmHg 87%
    08:00 +5°C° 0.1 mm 5 mps 765 mmHg 88%
    09:00 +5°C° 0.1 mm 5 mps 766 mmHg 90%
    10:00 +6°C° 0 mm 5 mps 766 mmHg 90%
    11:00 +6°C° 0 mm 5 mps 766 mmHg 89%
    12:00 +7°C° 0 mm 5 mps 766 mmHg 89%
    13:00 +7°C° 0 mm 5 mps 766 mmHg 89%
    14:00 +7°C° 0 mm 5 mps 766 mmHg 89%
    15:00 +7°C° 0 mm 5 mps 766 mmHg 89%
    16:00 +7°C° 0 mm 5 mps 766 mmHg 91%
    17:00 +7°C° 0 mm 5 mps 766 mmHg 92%
    18:00 +7°C° 0 mm 5 mps 766 mmHg 93%
    19:00 +8°C° 0 mm 5 mps 767 mmHg 93%
    20:00 +8°C° 0 mm 5 mps 767 mmHg 94%
    21:00 +8°C° 0 mm 5 mps 767 mmHg 95%
    22:00 +8°C° 0 mm 5 mps 767 mmHg 94%
    23:00 +8°C° 0 mm 5 mps 767 mmHg 94%

    29 January, Monday

    Time Temperature Precipitation Wind Pressure Humidity
    00:00 +8°C° 0 mm 5 mps 766 mmHg 94%
    01:00 +8°C° 0 mm 5 mps 766 mmHg 93%
    02:00 +8°C° 0 mm 5 mps 766 mmHg 92%
    03:00 +8°C° 0 mm 6 mps 766 mmHg 91%
    04:00 +8°C° 0 mm 6 mps 766 mmHg 90%
    05:00 +8°C° 0 mm 6 mps 766 mmHg 90%
    06:00 +8°C° 0 mm 6 mps 765 mmHg 89%
    07:00 +8°C° 0 mm 6 mps 765 mmHg 88%
    08:00 +8°C° 0 mm 6 mps 765 mmHg 88%
    09:00 +8°C° 0 mm 6 mps 765 mmHg 87%
    10:00 +8°C° 0 mm 6 mps 765 mmHg 86%
    11:00 +8°C° 0 mm 6 mps 765 mmHg 84%
    12:00 +9°C° 0 mm 7 mps 765 mmHg 83%
    13:00 +9°C° 0 mm 6 mps 765 mmHg 82%
    14:00 +9°C° 0 mm 6 mps 764 mmHg 82%
    15:00 +9°C° 0 mm 5 mps 764 mmHg 82%
    16:00 +8°C° 0 mm 5 mps 764 mmHg 83%
    17:00 +8°C° 0 mm 5 mps 764 mmHg 85%
    18:00 +7°C° 0 mm 5 mps 764 mmHg 86%
    19:00 +7°C° 0 mm 5 mps 763 mmHg 87%
    20:00 +7°C° 0 mm 5 mps 763 mmHg 88%
    21:00 +7°C° 0 mm 5 mps 763 mmHg 89%
    22:00 +7°C° 0 mm 5 mps 762 mmHg 90%
    23:00 +7°C° 0 mm 5 mps 761 mmHg 91%
    Show more